AO-07 1 07530U 74089B 24137.41277316 -.00000015 00000-0 19781-3 0 9997 2 07530 101.9777 131.7646 0012431 143.5235 31.7335 12.53675316265050 UO-11 1 14781U 84021B 24137.38847427 .00003803 00000-0 43478-3 0 9999 2 14781 97.7029 107.6228 0008216 169.8446 190.2937 14.86570435143763 AO-16 1 20439U 90005D 24137.51470948 .00000648 00000-0 25201-3 0 9998 2 20439 98.9000 141.7530 0009781 308.7229 174.3228 14.33365756792797 LO-19 1 20442U 90005G 24137.46603950 .00000616 00000-0 23961-3 0 9993 2 20442 98.8815 126.9017 0010564 279.9522 80.0469 14.33525222793231 AO-27 1 22825U 93061C 24137.43272707 .00000443 00000-0 18756-3 0 9998 2 22825 98.7906 189.8731 0008740 164.5637 195.5813 14.30485407598075 IO-26 1 22826U 93061D 24137.14003859 .00000514 00000-0 21306-3 0 9991 2 22826 98.7854 189.4405 0009516 151.7258 208.4442 14.30865197598318 FO-29 1 24278U 96046B 24137.54677278 .00000039 00000-0 79296-4 0 9990 2 24278 98.5790 76.3497 0349005 270.2086 85.9074 13.53188020370155 NOAA-15 1 25338U 98030A 24137.81526960 .00000629 00000-0 27851-3 0 9998 2 25338 98.5706 165.5946 0011339 60.7358 299.4954 14.26574089352963 GO-32 1 25397U 98043D 24137.61953899 .00000398 00000-0 19317-3 0 9991 2 25397 98.9196 103.8755 0000405 196.8787 163.2377 14.24040585342926 ISS 1 25544U 98067A 24137.83048976 .00021101 00000-0 35836-3 0 9995 2 25544 51.6382 110.8102 0003516 175.2006 261.5013 15.51411678453689 NO-44 1 26931U 01043C 24137.48097041 .00000796 00000-0 33198-3 0 9998 2 26931 67.0524 53.4635 0006617 281.5018 78.5340 14.31222149181419 SO-50 1 27607U 02058C 24137.21651962 .00004090 00000-0 56877-3 0 9995 2 27607 64.5559 319.8088 0029206 129.0906 231.2803 14.78841017151592 CO-55 1 27844U 03031E 24137.03318839 .00001164 00000-0 53353-3 0 9998 2 27844 98.6774 144.5112 0008699 233.5117 126.5260 14.23228477 83216 CO-57 1 27848U 03031J 24137.72836138 .00000983 00000-0 45842-3 0 9997 2 27848 98.6804 145.4591 0008432 249.3516 110.6758 14.22676853 83117 RS-22 1 27939U 03042A 24137.84538352 .00003973 00000-0 67286-3 0 9998 2 27939 98.2876 293.5591 0012716 154.6381 339.6700 14.69825859103673 NOAA-18 1 28654U 05018A 24137.84375818 .00000555 00000-0 31971-3 0 9999 2 28654 98.8743 215.0685 0014976 148.8970 211.3092 14.13204744978830 CO-58 1 28895U 05043F 24137.33392789 .00004943 00000-0 87793-3 0 9992 2 28895 98.1969 273.1282 0016961 98.5352 261.7775 14.67540477989787 CO-65 1 32785U 08021C 24137.85978853 .00013617 00000-0 12050-2 0 9994 2 32785 97.7532 103.4622 0013478 74.5296 285.7413 14.96336164870866 AAUSAT2 1 32788U 08021F 24137.44430793 .00036314 00000-0 18897-2 0 9992 2 32788 97.5933 117.6285 0002651 290.4848 69.6099 15.15934997873511 CO-66 1 32791U 08021J 24137.45616212 .00017688 00000-0 13111-2 0 9996 2 32791 97.6901 108.8229 0007501 66.3618 293.8393 15.03140006871833 RS-30 1 32953U 08025A 24137.84526356 .00000063 00000-0 38103-3 0 9990 2 32953 82.4997 108.9805 0019410 169.3349 190.8147 12.43140754725234 PRISM 1 33493U 09002B 24137.55949594 .00047996 00000-0 23584-2 0 9999 2 33493 98.2081 182.4875 0011444 2.4601 357.6684 15.17827092834257 NOAA-19 1 33591U 09005A 24137.79075520 .00000526 00000-0 30641-3 0 9997 2 33591 99.0490 193.2550 0014105 25.3346 334.8514 14.13002755787191 SRMSAT 1 37841U 11058D 24137.31562352 .00000805 00000-0 29565-3 0 9995 2 37841 19.9739 349.5497 0011852 104.2397 53.5114 14.11105427650058 HRBE 1 37855U 11061F 24137.69097538 .00358346 00000-0 25260-2 0 9997 2 37855 101.6881 303.6711 0039726 70.4530 290.1001 15.71958194688557 RS-40 1 38735U 12041C 24137.53532347 .00000014 00000-0 33381-4 0 9990 2 38735 82.4773 189.6131 0015941 288.3202 71.6143 12.42607934535242 ZACUBE-1 1 39417U 13066B 24137.60449204 .00011250 00000-0 11773-2 0 9996 2 39417 97.7315 94.2953 0049068 264.8587 94.7029 14.88888031566880 Delfi-N3xt 1 39428U 13066N 24137.51492061 .00013360 00000-0 17186-2 0 9995 2 39428 97.8389 56.6972 0101382 190.2751 169.6389 14.77644330561415 GOMX-1 1 39430U 13066Q 24137.74916809 .00006938 00000-0 11544-2 0 9999 2 39430 97.7370 14.0309 0140384 353.4880 6.4495 14.63993169558447 LO-74 1 39440U 13066AA 24137.80757498 .00012708 00000-0 15004-2 0 9991 2 39440 97.8109 82.1639 0071048 18.2962 342.0783 14.83000021564880 AO-73 1 39444U 13066AE 24137.15348572 .00011491 00000-0 11252-2 0 9991 2 39444 97.7168 96.8997 0046596 246.5458 113.0859 14.91626164565335 SPROUT 1 39770U 14029E 24137.88152970 .00180105 00000-0 46380-2 0 9997 2 39770 98.0089 287.3720 0008644 256.2604 103.7678 15.38468683542823 DTUSAT-2 1 40030U 14033W 24137.82665876 .00015713 00000-0 13357-2 0 9991 2 40030 98.0073 89.4542 0007240 256.8702 103.1712 14.97923631538513 EO-80 1 40032U 14033Y 24137.32878254 .00012608 00000-0 10728-2 0 9993 2 40032 98.0034 88.9545 0008208 258.5241 101.5058 14.97934434537901 HODOYOSHI-1 1 40299U 14070B 24137.81805634 .00040195 00000-0 80917-3 0 9995 2 40299 97.1416 198.3392 0009194 144.3559 215.8307 15.46441331530278 XW-2C 1 40906U 15049H 24137.83673110 .00048043 00000-0 11765-2 0 9995 2 40906 97.4807 153.8706 0010224 66.6795 293.5526 15.40557185479647 XW-2D 1 40907U 15049J 24137.80323164 .00063163 00000-0 12431-2 0 9995 2 40907 97.4747 156.0356 0008026 61.9134 298.2926 15.47004322479844 LILACSAT-2 1 40908U 15049K 24137.85207640 .00016805 00000-0 65997-3 0 9998 2 40908 97.5253 146.3483 0014539 100.3293 259.9585 15.25680142478717 XW-2B 1 40911U 15049N 24137.81516609 .00061719 00000-0 12426-2 0 9998 2 40911 97.4723 156.1896 0008156 62.3533 297.8543 15.46347623479714 IO-86 1 40931U 15052B 24136.95717385 .00002030 00000-0 18763-3 0 9994 2 40931 6.0023 222.9950 0013567 344.2675 15.7031 14.77819872466683 ChubuSat-2 1 41338U 16012B 24137.64536779 .00012072 00000-0 76015-3 0 9997 2 41338 31.0005 233.7740 0011132 279.3752 80.5627 15.07916933452833 ChubuSat-3 1 41339U 16012C 24137.64297023 .00010965 00000-0 70014-3 0 9996 2 41339 31.0071 232.0816 0011176 284.5414 75.3984 15.07383579452814 Horyu-4 1 41340U 16012D 24137.47033132 .00024167 00000-0 12328-2 0 9990 2 41340 31.0015 182.1973 0009241 10.4060 349.6770 15.15552066453332 Lapan A3 1 41603U 16040E 24137.81451668 .00006105 00000-0 24716-3 0 9996 2 41603 97.1439 152.9589 0011251 204.2130 155.8581 15.24972531438445 Pratham 1 41783U 16059A 24137.50491286 .00002570 00000-0 48627-3 0 9990 2 41783 97.8380 158.3292 0033970 120.0214 240.4367 14.64804064407905 CAS-2T 1 41847U 16066G 24137.44005772 .00001994 00000-0 30208-3 0 9998 2 41847 98.4613 208.9730 0353310 272.9930 83.0890 14.41133837394923 CAS-4B 1 42759U 17034B 24137.85997953 .00033356 00000-0 12336-2 0 9991 2 42759 43.0204 43.4706 0011237 147.3039 212.8510 15.27058883382613 CAS-4A 1 42761U 17034D 24137.86344223 .00024773 00000-0 91719-3 0 9997 2 42761 43.0232 41.8161 0010201 156.7962 203.3352 15.27160115382625 Aalto 1 1 42775U 17036L 24137.06054651 .00113364 00000-0 12869-2 0 9992 2 42775 97.1076 166.4141 0002118 325.1314 34.9806 15.61974310384081 URSA MAIOR 1 42776U 17036M 24137.34985264 .00254374 00000-0 15295-2 0 9990 2 42776 97.1027 170.4646 0002529 230.1573 129.9472 15.77015708384360 Max Valier Sat 1 42778U 17036P 24137.53890589 .00321856 00000-0 18853-2 0 9991 2 42778 97.0975 174.7628 0001592 209.8537 150.2640 15.77428639384570 D-SAT 1 42794U 17036AF 24137.45981746 .00009085 00000-0 64398-3 0 9999 2 42794 97.4929 120.5101 0107651 254.6505 104.2803 15.00372595375960 TechnoSat 1 42829U 17042E 24137.48855180 .00007695 00000-0 68380-3 0 9990 2 42829 97.3844 320.3430 0012684 175.5335 184.6003 14.96320794372433 AO-91 1 43017U 17073E 24137.15631865 .00018837 00000-0 11679-2 0 9998 2 43017 97.5831 13.7831 0214002 41.1972 320.5179 14.92656097350886 TianYi 2 1 43155U 18008A 24137.84362820 .00131815 00000-0 19867-2 0 9997 2 43155 97.2396 191.3365 0009033 183.1626 176.9572 15.54284394350028 Zhou Enlai 1 43156U 18008B 24137.83709649 .00232954 00000-0 24992-2 0 9992 2 43156 97.2426 192.8882 0007384 190.7476 169.3626 15.63019711350033 TianYi 6 1 43158U 18008D 24137.41330417 .00081872 00000-0 17938-2 0 9994 2 43158 97.2570 185.9933 0008176 189.7161 170.3931 15.43769648349560 S-Net D 1 43186U 18014G 24137.45938386 .00009910 00000-0 71670-3 0 9992 2 43186 97.5946 39.8604 0012648 110.5083 249.7502 15.04167475343732 S-Net B 1 43187U 18014H 24137.46151220 .00009971 00000-0 72104-3 0 9998 2 43187 97.5952 39.8096 0013433 106.8894 253.3806 15.04160358343737 S-Net A 1 43188U 18014J 24137.26099277 .00009763 00000-0 70605-3 0 9993 2 43188 97.5957 39.7229 0013326 108.0338 252.2341 15.04164389343705 S-Net C 1 43189U 18014K 24137.26412460 .00009786 00000-0 70744-3 0 9996 2 43189 97.5973 39.6669 0015011 102.0907 258.2001 15.04157514342250 Ten-Koh 1 43677U 18084G 24137.77016383 .00008483 00000-0 76408-3 0 9991 2 43677 98.0591 290.3921 0015495 119.9109 240.3653 14.95762839302025 PO-101 1 43678U 18084H 24137.88891536 .00003953 00000-0 36550-3 0 9996 2 43678 98.0680 294.9714 0009916 131.0908 229.1170 14.95133916302249 QO-100 1 43700U 18090A 24137.31222733 .00000147 00000-0 00000-0 0 9994 2 43700 0.0155 280.2800 0001720 172.9778 279.5030 1.00276150 20031 MinXSS-2 1 43758U 18099A 24137.13304451 .00020040 00000-0 12906-2 0 9998 2 43758 97.5550 199.9953 0018013 71.5030 288.8154 15.08245121297951 AO-95 1 43770U 18099N 24137.13723663 .00014278 00000-0 10015-2 0 9997 2 43770 97.5471 195.6761 0015735 111.4743 248.8163 15.05184419297742 RANGE-B 1 43772U 18099Q 24137.44056248 .00022393 00000-0 14157-2 0 9999 2 43772 97.5265 199.3422 0005567 34.7986 325.3606 15.09022652297936 RANGE-A 1 43773U 18099R 24137.39836581 .00009376 00000-0 71748-3 0 9996 2 43773 97.5057 191.6698 0017025 85.6381 274.6789 15.01986069297663 MOVE-II 1 43780U 18099Y 24137.45810865 .00034335 00000-0 18649-2 0 9991 2 43780 97.5234 200.7672 0008146 94.9578 265.2583 15.14403445298123 SNUSat 2 1 43782U 18099AA 24137.40018741 .00012574 00000-0 90077-3 0 9998 2 43782 97.5150 195.2562 0016011 56.0846 304.1900 15.04419036297795 SnugLite 1 43784U 18099AC 24137.44214036 .00015826 00000-0 11020-2 0 9992 2 43784 97.4971 194.6575 0005579 70.8968 289.2863 15.05521192297867 ITASat 1 1 43786U 18099AE 24137.12629576 .00012018 00000-0 87555-3 0 9995 2 43786 97.5103 195.3015 0018804 101.9897 258.3438 15.03755668297754 EAGLET 1 1 43790U 18099AJ 24137.41012340 .00008613 00000-0 65133-3 0 9991 2 43790 97.5316 196.0549 0016544 80.8195 279.4901 15.02471657297504 ESEO 1 43792U 18099AL 24137.10970076 .00005393 00000-0 44321-3 0 9996 2 43792 97.5210 192.8214 0015343 81.5220 278.7742 14.99472613297395 CSIM 1 43793U 18099AM 24137.44405105 .00030674 00000-0 16687-2 0 9993 2 43793 97.5308 202.4498 0013703 68.1389 292.1299 15.14320078297977 JO-97 1 43803U 18099AX 24137.43025424 .00016859 00000-0 11358-2 0 9995 2 43803 97.5229 196.8162 0011147 59.0806 301.1516 15.06699953297917 Suomi 100 1 43804U 18099AY 24137.39967518 .00014873 00000-0 10201-2 0 9990 2 43804 97.5284 196.5917 0016918 55.0603 305.2210 15.05995940297893 ISAT 1 43879U 18111D 24137.47187555 .00025799 00000-0 15992-2 0 9992 2 43879 97.6223 43.3398 0015536 105.5753 254.7192 15.09626597294632 UWE-4 1 43880U 18111E 24136.70930790 .00016463 00000-0 10472-2 0 9992 2 43880 97.6131 42.6806 0018848 116.7155 243.6005 15.08731831294533 Sparrow 1 43881U 18111F 24137.71847653 .00025124 00000-0 15378-2 0 9994 2 43881 97.6298 45.4274 0011808 138.8972 221.3149 15.10137341292730 AISat 1 1 44104U 19018AC 24137.82276695 .00265713 26860-4 10401-2 0 9992 2 44104 97.3603 246.7005 0012831 102.8084 257.4621 15.86846074287884 Prox-1 1 44339U 19036A 24137.46852181 .00022765 00000-0 40100-2 0 9993 2 44339 23.9999 69.3793 0008495 6.3096 353.7504 14.66094576260589 SONATE 1 44400U 19038Q 24137.42548951 .00029607 00000-0 93399-3 0 9998 2 44400 97.7127 130.1376 0015395 210.5118 149.5229 15.32707120269219 BeeSat 9 1 44412U 19038AC 24137.50697967 .00673828 00000-0 26358-2 0 9992 2 44412 97.6751 142.8137 0010796 161.3945 198.7722 15.85307021269803 JAISAT-1 1 44419U 19038F 24137.75896448 .00509517 00000-0 23713-2 0 9996 2 44419 97.6741 144.0042 0010600 157.8170 202.3559 15.81991391270214 Taurus 1 1 44530U 19059C 24137.81368488 .00016227 00000-0 37799-2 0 9998 2 44530 98.5717 257.1671 0013027 149.0150 211.1817 14.54835862247209 Duchifat 3 1 44854U 19089C 24137.64157725 .00033441 00000-0 17327-2 0 9993 2 44854 36.9569 240.4041 0007194 187.7119 172.3517 15.15323706243418 OPS-SAT 1 44878U 19092F 24137.70247410 .02051129 30079-2 38916-2 0 9994 2 44878 97.4279 343.1514 0006306 262.2115 97.8448 16.01454718245600 TO-108 1 44881U 19093C 24137.81617963 .00002873 00000-0 35371-3 0 9997 2 44881 97.8281 215.2045 0015709 68.2184 292.0700 14.83642028238395 FloripaSat 1 1 44885U 19093G 24137.85614082 .00012238 00000-0 12764-2 0 9990 2 44885 97.8402 220.6776 0013660 63.7899 296.4721 14.89830765238701 RS-44 1 44909U 19096E 24137.44891053 .00000048 00000-0 13840-3 0 9993 2 44909 82.5177 125.8653 0218444 125.2235 236.9531 12.79729658204912 BY70-2 1 45857U 20042B 24137.82025269 .00172543 00000-0 71831-2 0 9992 2 45857 97.9062 229.4845 0007409 280.6521 79.3879 15.22951967209766 UPMSat 2 1 46276U 20061E 24137.45000424 .00027038 00000-0 85433-3 0 9996 2 46276 97.2991 204.0885 0001285 158.7869 201.3427 15.32784902205312 AmicalSat 1 46287U 20061R 24137.45546354 .00050714 00000-0 14853-2 0 9999 2 46287 97.3510 204.7485 0000705 39.7857 320.3438 15.35054549204690 SALSAT 1 46495U 20068K 24137.39513814 .00012278 00000-0 70436-3 0 9998 2 46495 97.8139 95.9043 0015910 66.3400 293.9498 15.12606346199504 UVSQ-SAT 1 47438U 21006AB 24137.13620913 .00076118 00000-0 16339-2 0 9994 2 47438 97.3291 197.2611 0004626 327.7266 32.3699 15.44424803183781 YUSAT 1 1 47439U 21006AC 24137.43232880 .00177923 00000-0 21177-2 0 9992 2 47439 97.3249 201.4658 0004293 278.6860 81.3911 15.60514311184085 SOMP 2b 1 47445U 21006AJ 24137.14349549 .00063276 00000-0 14808-2 0 9996 2 47445 97.3258 195.7174 0004822 342.9816 17.1269 15.41899717183711 IDEASSat 1 47458U 21006AX 24137.13079052 .00056594 00000-0 14327-2 0 9999 2 47458 97.3365 196.3126 0005021 347.1983 12.9135 15.39543323183656 CubeSX-Sirius-HSE 1 47951U 21022V 24137.87642883 .00034348 00000-0 14009-2 0 9994 2 47951 97.4635 36.3442 0012553 243.6398 116.3551 15.24285114173809 CubeSX-HSE 1 47952U 21022W 24137.83212321 .00034518 00000-0 14033-2 0 9997 2 47952 97.4636 36.3859 0012413 242.5370 117.4605 15.24394875173803 KSU-Cubesat 1 47954U 21022Y 24137.68128358 .00052542 00000-0 19692-2 0 9991 2 47954 97.4644 37.4160 0011436 237.1842 122.8296 15.27015653173576 GRBAlpha 1 47959U 21022AD 24137.86410510 .00034047 00000-0 13803-2 0 9998 2 47959 97.4640 36.5619 0012301 242.7044 117.2941 15.24492269172634 Orbicraft-Zorkiy 1 47960U 21022AE 24137.83059320 .00034533 00000-0 13255-2 0 9996 2 47960 97.4680 37.7005 0011536 238.2854 121.7260 15.26325968173379 STECCO 1 47962U 21022AG 24137.84432593 .00154420 00000-0 25505-2 0 9995 2 47962 97.4634 46.0526 0007992 166.4453 193.7015 15.51662961173258 MO-110 1 47964U 21022AJ 24137.70958850 .00250981 00000-0 34469-2 0 9999 2 47964 97.4657 47.4836 0009418 164.9744 195.1792 15.56410093173323 TUBIN 1 48900U 21059X 24137.85397860 .00025919 00000-0 91925-3 0 9996 2 48900 97.6417 281.6088 0007444 188.4567 171.6548 15.29034691160131 LEDSAT 1 49069U 21073D 24137.15083915 .00029224 00000-0 12133-2 0 9991 2 49069 97.4385 208.5201 0019908 40.8971 319.3755 15.23608888151571 CUTE 1 49263U 21088D 24137.44842623 .00031491 00000-0 15269-2 0 9996 2 49263 97.4992 203.6745 0015250 184.5261 175.5838 15.18348041144824 TeikyoSat 4 1 49396U 21102B 24137.58221235 .00005261 00000-0 38246-3 0 9992 2 49396 97.4632 183.6527 0014345 32.4734 327.7372 15.04170829138006 Z-Sat 1 49399U 21102E 24137.82627471 .00008972 00000-0 58277-3 0 9992 2 49399 97.4333 185.3652 0020449 10.0595 350.1039 15.08083586138269 KOSEN 1 1 49402U 21102H 24137.39952884 .00011691 00000-0 70047-3 0 9999 2 49402 97.4269 186.2801 0018539 356.6345 3.4757 15.10996131138343 HO-113 1 50466U 21131B 24137.84978336 .00001687 00000-0 55409-3 0 9992 2 50466 98.5274 223.0670 0003715 204.1459 155.9555 14.39590841125499 Tevel-3 1 50988U 22002E 24137.82944161 .00187989 00000-0 24187-2 0 9994 2 50988 97.3797 212.3149 0003836 160.1110 200.0296 15.58418061130154 Tevel-8 1 50989U 22002F 24137.80370687 .00190538 00000-0 24666-2 0 9995 2 50989 97.3819 212.3790 0003992 159.7820 200.3595 15.58244701130149 Tevel-5 1 50998U 22002Q 24137.80400630 .00235356 00000-0 25325-2 0 9998 2 50998 97.3783 213.4931 0003403 163.1044 197.0328 15.62955087130239 Tevel-6 1 50999U 22002R 24137.80976390 .00233014 00000-0 25263-2 0 9990 2 50999 97.3778 213.4668 0003350 162.9751 197.1620 15.62767993130237 Tevel-1 1 51013U 22002AF 24137.79268442 .00185119 00000-0 24010-2 0 9999 2 51013 97.3785 212.1412 0003681 155.9109 204.2320 15.58213329130143 IRIS-A 1 51044U 22002BN 24137.15791278 .00031860 00000-0 10912-2 0 9990 2 51044 97.3863 203.8072 0007692 141.3625 218.8167 15.30124574129524 Tevel-7 1 51062U 22002CG 24137.85704625 .00191732 00000-0 24648-2 0 9993 2 51062 97.3804 212.4094 0003620 156.0820 204.0605 15.58428393130157 Tevel-4 1 51063U 22002CH 24137.82915285 .00182656 00000-0 23903-2 0 9995 2 51063 97.3809 212.2858 0003651 155.1921 204.9511 15.57982636130143 Tevel-2 1 51069U 22002CP 24137.82743946 .00187345 00000-0 24069-2 0 9998 2 51069 97.3794 212.2808 0003654 159.7058 200.4344 15.58459833130156 SO-115 1 51080U 22002DA 24136.20771189 .00644559 16230-3 22784-2 0 9994 2 51080 97.4012 219.8837 0007780 232.4421 127.6145 15.89011842130309 SO-114 1 51081U 22002DB 24137.21227267 .01095750 59162-3 23883-2 0 9996 2 51081 97.4009 221.3662 0009517 252.0765 107.9474 15.98300668130492 OreSat0 1 52017U 22026K 24137.47413858 .00124018 00000-0 22662-2 0 9990 2 52017 97.4971 150.4201 0009990 342.8472 17.2439 15.48886298120798 Planetum 1 1 52738U 22057G 24137.29858085 .00061280 00000-0 16040-2 0 9993 2 52738 97.5624 262.3672 0005685 251.4763 108.5865 15.38492004109661 Foresail-1 1 52766U 22057AL 24137.30291092 .00032767 00000-0 11078-2 0 9999 2 52766 97.5780 262.1020 0009426 238.7592 121.2725 15.30527557109576 SNUGLITE 2 1 52899U 22065F 24137.68330546 .00003864 00000-0 80200-3 0 9994 2 52899 98.1152 279.4490 0006623 246.9222 113.1281 14.60695444 99660 IO-117 1 53106U 22080B 24129.12370289 -.00000003 00000-0 00000+0 0 9990 2 53106 70.1412 206.4364 0007827 115.6229 244.5240 6.42557310 42692 SelfieSat 1 53951U 22057BC 24137.31284509 .00117141 00000-0 20902-2 0 9998 2 53951 97.5644 265.5676 0007458 243.3509 116.6978 15.49615979109843 FO-118 1 54684U 22167C 24137.85835743 .00044682 00000-0 16174-2 0 9990 2 54684 97.6017 281.9945 0010357 250.6581 109.3539 15.28217136 79518 SSS-2B 1 56184U 23054G 24137.83182169 .00049987 00000-0 13067-2 0 9999 2 56184 97.3727 35.6015 0004233 291.4096 68.6698 15.38594053 61311 CIRBE 1 56188U 23054L 24137.28334718 .00097339 00000-0 18486-2 0 9995 2 56188 97.3643 36.4824 0002247 271.7534 88.3459 15.47927825 61344 INSPIRE-Sat 7 1 56211U 23054AK 24137.43886972 .00104198 00000-0 18637-2 0 9993 2 56211 97.3692 37.8045 0005446 231.0620 129.0146 15.49611344 61438 RoseyCubesat 1 1 56212U 23054AL 24137.84225887 .00119173 00000-0 18870-2 0 9999 2 56212 97.3697 38.8155 0005550 218.7788 141.3067 15.52989987 61535 SO-120 1 56992U 23084BU 24137.27980984 .00048106 00000-0 18559-2 0 9991 2 56992 97.5277 256.3480 0013775 139.2796 220.9475 15.26050891 51314 MRC-100 1 56993U 23084BV 24137.29077118 .00055876 00000-0 20442-2 0 9996 2 56993 97.5278 256.6630 0013042 139.9207 220.2996 15.27777750 51342 UmKA 1 (RS40S) 1 57172U 23091G 24137.86658684 .00010822 00000-0 72208-3 0 9990 2 57172 97.6146 190.2346 0015851 223.3053 136.6930 15.07115591 48779 CubeBel-2 (EU11S) 1 57175U 23091K 24137.82929440 .00015273 00000-0 10030-2 0 9999 2 57175 97.6140 190.1184 0014395 236.6561 123.3289 15.07637758 48761 VERONIKA 1 58261U 23174F 24137.80451936 .00032582 00000-0 15156-2 0 9992 2 58261 97.4614 212.9057 0011465 358.7168 1.4036 15.19825277 28940 KAFASAT 1 58317U 23174BP 24137.81761057 .00041063 00000-0 17540-2 0 9996 2 58317 97.4559 213.3650 0009841 332.8344 27.2376 15.22708031 28987 ENSO 1 58470U 23185J 24137.85556809 .00027510 00000-0 11982-2 0 9994 2 58470 97.4283 204.9276 0012968 36.4312 323.7804 15.22102465 25376 EIRSAT-1 1 58472U 23185L 24137.83923696 .00032267 00000-0 13860-2 0 9998 2 58472 97.4275 204.9326 0012579 37.6578 322.5537 15.22545153 25375 SO-121 1 58567U 23174CY 24137.16899790 .00072168 00000-0 27519-2 0 9994 2 58567 97.4549 212.8735 0010671 340.5224 19.5605 15.26351459 28898 SONATE-2 1 59112U 24043Q 24137.33613783 .00018225 00000-0 90062-3 0 9990 2 59112 97.4743 261.5484 0015835 49.9137 310.3482 15.17793778 10972 KASHIWA 1 59508U 98067WH 24137.21723198 .00156587 00000-0 19750-2 0 9993 2 59508 51.6337 112.8811 0003576 139.4881 220.6378 15.58543603 5497 /EX
